Other Public Products
Issued by NWS Charleston, SC

Current Version | Previous Version | Graphics & Text | Print | Product List | Glossary On
Versions: 1 2 3 4 5 6 7 8 9 10 11 12 13 14 15 16 17 18 19 20 21 22 23 24 25 26 27 28 29 30 31 32 33 34 35 36 37 38 39 40 41 42 43 44 45 46 47 48 49 50
713
FPUS82 KCHS 221726
OPUCHS

TEST...KCHS/KSAV Gateway Observations...TEST
National Weather Service Charleston SC
1200 PM EST WED FEB 22 2017

NOTE: "fair" indicates few or no clouds below 12,000 feet with no
significant weather and/or obstructions to visibility.

SCZ050-WAZ558-NCZ071-TXZ119-213-PAZ071-DCZ001-FLZ074-172-MI076-
NYZ176-178-MAZ016-IL014-TNZ027-NJZ106-GAZ044-MD014-221800-
...Gateway Observations for Charleston International...

CITY           SKY/WX    TMP DP  RH WIND       PRES   REMARKS
Chas Airport   PTSUNNY   75  55  49 SE21      29.93F
Seattle        PTSUNNY   38  34  85 S6        30.19S WCI  33
Charlotte      CLOUDY    63  53  70 NE5       30.00F
Dallas DFW     MOSUNNY   73  44  35 S10       29.88F
Dallas Love    MOSUNNY   72  44  36 S8        29.89F
Philladelphia  PTSUNNY   53  42  66 SW5       29.99F
Wash National  CLOUDY    55  45  68 S8        29.99F
Baltimore      CLOUDY    58  42  55 N3        29.97F
Miami          RAIN      64  64 100 SE9G20    29.76F VSB 1
Detroit        PTSUNNY   61  54  77 W8        29.84F FOG
Newark         CLOUDY    49  37  63 W6        29.99F
Laguardia      CLOUDY    51  37  58 NW3       29.99F
J F K          CLOUDY    47  40  76 S9        30.01F
Boston Logan   PTSUNNY   52  36  54 SW3       29.95F
Ft. Lauderdale LGT RAIN  73  66  78 SE23G30   29.73F
Chicago O`Hare CLOUDY    60  53  77 S15       29.76F
Chicago Midway CLOUDY    55  52  89 SW12      29.78F FOG
Houston Bush   SUNNY     75  50  41 CALM      29.91F
Houston Hobby  SUNNY     75  49  39 VRB6      29.91F
Nashville      CLOUDY    64  58  80 SE6       29.91F
Atlanta        CLOUDY    64  60  87 E14       29.90F

$$

GAZ044-118-TXZ119-213-NCZ071-DCZ001-MDZ014-506-PAZ021-071-NJZ106-
NYZ176-178-MAZ106-OHZ011-021-055-MIZ076-KYZ091-ILZ014-INZ047-
MNZ060-ONZ431-221800-
...Gateway Observations for Savannah International...

CITY           SKY/WX    TMP DP  RH WIND       PRES   REMARKS
Savannah Arpt  HVY RAIN  65  61  87 E14G20    29.89S FOG
Atlanta        CLOUDY    64  60  87 E14       29.90F
Charlotte      CLOUDY    63  53  70 NE5       30.00F
Dallas DFW     MOSUNNY   73  44  35 S10       29.88F
Houston Bush   SUNNY     75  50  41 CALM      29.91F
Wash National  CLOUDY    55  45  68 S8        29.99F
Wash Dulles    PTSUNNY   58  42  55 CALM      29.98F
Baltimore      CLOUDY    58  42  55 N3        29.97F
Philadelphia   PTSUNNY   53  42  66 SW5       29.99F
Newark         CLOUDY    49  37  63 W6        29.99F
Laguardia      CLOUDY    51  37  58 NW3       29.99F
J F K          CLOUDY    47  40  76 S9        30.01F
Boston         PTSUNNY   52  36  54 SW3       29.95F
Pittsburg      CLOUDY    60  46  59 SW6       29.92F
Akron          FOG       55  52  89 SW10      29.91F VSB 1
Cleveland      CLOUDY    62  53  72 SW12      29.90F
Cincinnati     CLOUDY    59  57  93 S9        29.90F
Columbus       CLOUDY    56  56  99 S10       29.91F
Detroit        PTSUNNY   61  54  77 W8        29.84F FOG
Chicago O`Hare CLOUDY    60  53  77 S15       29.76F
Minneapolis    CLOUDY    47  41  80 CALM      29.58F
Indianapolis   CLOUDY    61  55  81 S10       29.86F
Toronto Canada FOG       43  43 100 SE6       29.86  VSB 3/4

$$




USA.gov is the U.S. government's official web portal to all federal, state and local government web resources and services.